星链-36307(STARLINK-36307)

导读

STARLINK-36307(NORAD编号68306)是美国SpaceX公司星链(Starlink)星座的成员卫星,属于低轨互联网通信卫星。星链项目计划总计部署约4.2万颗低轨卫星,旨在为全球提供高速低延迟的卫星互联网服务,重点覆盖地面基础设施难以抵达的偏远地区、海洋及航空场景。该卫星运行于近地轨道,依托星链星座规模化组网优势,参与提供全球范围的宽带接入服务,截至2026年,星链星座已有超9600颗卫星在轨正常工作,STARLINK-36307也为星座的全球覆盖能力提供支撑。

基本信息
目录编号:
68306
目录名称:
STARLINK-36307
国际标识:
2026-057N
轨道中心:
EARTH
卫星名称:
星链-36307
卫星全名:
星链-36307(STARLINK-36307)
卫星状态:
在轨 (已飞行85 天)
发射日期:
2026-03-20 UTC
国别 :
美国 (US)
星等 :
--
轨道信息
数据来源 国际轨道数据
星历时间: 2026-06-13T03:40:28+0800
4小时前
查看轨道信息
半长轴: 6797.259km
偏心率: 0.0002699
轨道倾角: 97.285°
近地点辐角 71.701°
升交点赤经 290.569°
平近点角 288.454°
近地点: 417.287km
远地点: 420.957km
周期: 92.952分钟
每日圈数: 15.491808
详细信息
固有亮度:
5
最大亮度:
2.5
卫星平台:
Starlink V1.0
覆盖范围:
全球
运营商:
太空探索技术公司
运营商所在国:
美国
制造商(研发单位):
太空探索技术公司
制造商所在国:
美国
使用方式:
暂无
卫星简介
Starlink 计划是 SpaceX 推出的全球卫星互联网项目,通过发射低轨道卫星,为全球尤其是偏远地区提供高速、低延迟的互联网服务。自 2019 年起,Starlink 已部署数千颗卫星,旨在缩小全球数字鸿沟,推动互联网普及。该项目还为军事、航空等行业提供通信支持,带来广泛经济效益。
2D轨道图
3D轨道图
轨道高度分析图
轨道倾角分析图
轨道综合分析图
查看轨道综合分析图